Location: Anna Drive-In (historical)
(37.4631°N, 89.2233°W)
Time: 07:58:18
(UTC+00:00)

Daily predictions for brighter satellites

Satellite Brightness Start Highest point End
(mag) Time Altitude Azimuth Time Altitude Azimuth Time Altitude Azimuth
Lacrosse 4 Rocket 3.4 12:06:12 12° NW 12:06:12 12° NW 12:07:32 10° NNW
Cosmos 2278 Rocket 3.9 12:06:19 13° W 12:06:19 13° W 12:08:25 10° WSW
Cosmos 1943 3.7 12:02:22 10° S 12:07:59 65° ESE 12:13:38 10° NNE
Cosmos 1315 Rocket 3.2 12:06:54 10° SSW 12:10:34 39° WNW 12:14:15 10° N
Cosmos 1689 Rocket 2.7 12:09:09 10° SSW 12:11:48 33° W 12:14:28 10° NNW
CZ-4B R/B 4.1 12:06:30 10° NNE 12:12:03 56° E 12:17:27 10° S
NOSS 3-2 (A) 4.4 12:10:19 13° W 12:14:20 25° NW 12:19:32 10° NNE
NOAA 6 4.0 12:16:29 10° N 12:21:37 64° WNW 12:26:44 10° SSW
Cosmos 1346 Rocket 3.6 12:19:09 10° NNW 12:22:42 31° W 12:26:14 10° SSW
Cosmos 2026 Rocket 4.4 12:19:33 10° NNW 12:25:27 41° W 12:31:21 10° SSW
NOSS 3-2 (C) 4.1 12:22:54 10° WSW 12:27:54 32° NW 12:33:32 10° NNE
Cosmos 1441 Rocket 4.2 12:28:43 10° N 12:32:33 51° E 12:36:19 10° SSE
CENTAUR R/B 3.3 12:29:04 10° WSW 12:34:14 30° NW 12:40:12 10° NNE
YAOGAN 6 4.0 12:35:29 10° NNW 12:38:09 19° WNW 12:40:48 10° WSW
Radarsat Rocket 4.3 12:33:41 10° NNE 12:41:05 76° WNW 12:47:31 10° SSW
USA 229 DEB 4.5 23:33:52 10° NNW 23:40:32 35° NE 23:47:28 10° ESE
CZ-2C R/B 3.8 23:37:07 10° SE 23:41:59 35° ENE 23:47:04 10° N
Cosmos 1602 Rocket 3.7 23:38:16 10° SSE 23:42:27 50° E 23:46:41 10° NNE
Iridium 4 Rocket 4.3 23:40:56 10° NNE 23:45:25 28° E 23:49:32 10° SE
H-2A R/B 2.8 23:41:30 10° N 23:45:46 57° WNW 23:49:56 10° SSW
SJ 16-02 3.2 23:43:29 10° SW 23:47:23 31° WNW 23:51:17 10° N
YAOGAN 1 3.9 23:45:53 10° ESE 23:48:55 19° ENE 23:51:56 10° NNE
Cosmos 1939 Rocket 2.9 23:49:10 10° SSE 23:53:13 66° ENE 23:57:15 10° N
